| time (UTC) | temp F | wind direction | speed MPH | gust MPH | rain 1hr in | rain 24hr in | rain mn in | humidity % | barometer mb |
| 20260905204546 | 66 | 271 | 2.0 | 5.0 | 0.00 | 0.00 | 0.00 | 75 | 1017.9 |
| 20260905203042 | 65 | 295 | 2.0 | 5.0 | 0.00 | 0.00 | 0.00 | 75 | 1018.1 |
| 20260905201540 | 65 | 293 | 3.0 | 5.0 | 0.00 | 0.00 | 0.00 | 74 | 1018.2 |
| 20260905200041 | 65 | 308 | 2.0 | 5.0 | 0.00 | 0.00 | 0.00 | 77 | 1018.1 |
| 20260905194538 | 65 | 319 | 1.0 | 5.0 | 0.00 | 0.00 | 0.00 | 76 | 1018.2 |
| 20260905193035 | 64 | 200 | 2.0 | 5.0 | 0.00 | 0.00 | 0.00 | 77 | 1018.3 |
| 20260905191535 | 64 | 284 | 2.0 | 5.0 | 0.00 | 0.00 | 0.00 | 78 | 1018.3 |
| 20260905190032 | 64 | 217 | 1.0 | 5.0 | 0.00 | 0.00 | 0.00 | 79 | 1018.4 |
| 20260905184550 | 63 | 255 | 1.0 | 5.0 | 0.00 | 0.00 | 0.00 | 81 | 1018.4 |
| 20260905183041 | 62 | 274 | 2.0 | 6.0 | 0.00 | 0.00 | 0.00 | 80 | 1018.5 |
| 20260905181532 | 63 | 165 | 0.0 | 5.0 | 0.00 | 0.00 | 0.00 | 82 | 1018.5 |
| 20260905180033 | 62 | 236 | 1.0 | 5.0 | 0.00 | 0.00 | 0.00 | 82 | 1018.6 |
| 20260905174525 | 61 | 307 | 1.0 | 4.0 | 0.00 | 0.00 | 0.00 | 83 | 1018.5 |
| 20260905173022 | 61 | 297 | 0.0 | 2.0 | 0.00 | 0.00 | 0.00 | 85 | 1018.6 |
| 20260905171521 | 59 | 295 | 0.0 | 4.0 | 0.00 | 0.00 | 0.00 | 86 | 1018.7 |
| 20260905170020 | 60 | 345 | 0.0 | 3.0 | 0.00 | 0.00 | 0.00 | 87 | 1018.6 |
| 20260905164514 | 59 | 11 | 0.0 | 2.0 | 0.00 | 0.00 | 0.00 | 90 | 1018.6 |
| 20260905163012 | 58 | 354 | 2.0 | 4.0 | 0.00 | 0.00 | 0.00 | 90 | 1018.6 |
| 20260905161510 | 58 | 219 | 0.0 | 1.0 | 0.00 | 0.00 | 0.00 | 92 | 1018.4 |
| 20260905160008 | 57 | 203 | 0.0 | 0.0 | 0.00 | 0.00 | 0.00 | 95 | 1018.3 |
| 20260905154507 | 55 | 219 | 0.0 | 0.0 | 0.00 | 0.00 | 0.00 | 95 | 1018.2 |
| 20260905153006 | 55 | 219 | 0.0 | 1.0 | 0.00 | 0.00 | 0.00 | 95 | 1018.3 |
| 20260905151506 | 55 | 290 | 0.0 | 0.0 | 0.00 | 0.00 | 0.00 | 96 | 1018.2 |
| 20260905150004 | 54 | 290 | 0.0 | 0.0 | 0.00 | 0.00 | 0.00 | 96 | 1018.1 |
| 20260905144505 | 54 | 289 | 0.0 | 0.0 | 0.00 | 0.00 | 0.00 | 97 | 1018.1 |
| 20260905143004 | 53 | 289 | 0.0 | 0.0 | 0.00 | 0.00 | 0.00 | 97 | 1018.1 |
| 20260905141503 | 53 | 289 | 0.0 | 0.0 | 0.00 | 0.00 | 0.00 | 96 | 1018.1 |
| 20260905140101 | 53 | 289 | 0.0 | 0.0 | 0.00 | 0.00 | 0.00 | 96 | 1017.9 |
| 20260905134559 | 53 | 289 | 0.0 | 0.0 | 0.00 | 0.00 | 0.00 | 96 | 1017.8 |
| 20260905133058 | 53 | 290 | 0.0 | 0.0 | 0.00 | 0.00 | 0.00 | 96 | 1017.8 |
| 20260905131604 | 54 | 289 | 0.0 | 2.0 | 0.00 | 0.00 | 0.00 | 96 | 1017.8 |
| 20260905130059 | 55 | 129 | 0.0 | 0.0 | 0.00 | 0.00 | 0.00 | 96 | 1017.7 |
| 20260905124556 | 55 | 129 | 0.0 | 2.0 | 0.00 | 0.00 | 0.00 | 96 | 1017.7 |
| 20260905123059 | 55 | 116 | 0.0 | 1.0 | 0.00 | 0.00 | 0.00 | 96 | 1017.6 |
| 20260905121600 | 54 | 120 | 0.0 | 0.0 | 0.00 | 0.00 | 0.00 | 96 | 1017.5 |
| 20260905120053 | 54 | 120 | 0.0 | 0.0 | 0.00 | 0.00 | 0.00 | 96 | 1017.5 |
| 20260905114554 | 54 | 136 | 0.0 | 0.0 | 0.00 | 0.00 | 0.00 | 96 | 1017.5 |
| 20260905113052 | 53 | 136 | 0.0 | 0.0 | 0.00 | 0.00 | 0.00 | 95 | 1017.4 |
| 20260905111640 | 54 | 136 | 0.0 | 0.0 | 0.00 | 0.00 | 0.00 | 95 | 1017.3 |
| 20260905110049 | 54 | 143 | 0.0 | 0.0 | 0.00 | 0.00 | 0.00 | 95 | 1017.3 |
| 20260905104552 | 54 | 153 | 0.0 | 0.0 | 0.00 | 0.00 | 0.00 | 95 | 1017.3 |
| 20260905103048 | 54 | 154 | 0.0 | 1.0 | 0.00 | 0.00 | 0.00 | 95 | 1017.4 |
| 20260905101556 | 54 | 128 | 0.0 | 1.0 | 0.00 | 0.00 | 0.00 | 95 | 1017.3 |
| 20260905100050 | 54 | 122 | 0.0 | 1.0 | 0.00 | 0.00 | 0.00 | 94 | 1017.3 |
| 20260905094546 | 54 | 122 | 0.0 | 1.0 | 0.00 | 0.00 | 0.00 | 94 | 1017.3 |
| 20260905093045 | 54 | 144 | 0.0 | 1.0 | 0.00 | 0.00 | 0.00 | 94 | 1017.3 |
| 20260905091543 | 54 | 188 | 0.0 | 1.0 | 0.00 | 0.00 | 0.00 | 94 | 1017.2 |
| 20260905090041 | 55 | 217 | 0.0 | 1.0 | 0.00 | 0.00 | 0.00 | 94 | 1017.0 |
| 20260905084548 | 55 | 302 | 0.0 | 0.0 | 0.00 | 0.00 | 0.00 | 93 | 1017.0 |
| 20260905083037 | 56 | 99 | 0.0 | 1.0 | 0.00 | 0.00 | 0.00 | 94 | 1017.0 |
| 20260905081536 | 56 | 110 | 0.0 | 1.0 | 0.00 | 0.00 | 0.00 | 93 | 1017.0 |
| 20260905080043 | 56 | 92 | 0.0 | 1.0 | 0.00 | 0.00 | 0.00 | 93 | 1016.9 |
| 20260905074541 | 56 | 140 | 0.0 | 1.0 | 0.00 | 0.00 | 0.00 | 92 | 1017.0 |
| 20260905073035 | 56 | 118 | 0.0 | 0.0 | 0.00 | 0.00 | 0.00 | 91 | 1017.0 |
| 20260905071533 | 57 | 118 | 0.0 | 0.0 | 0.00 | 0.00 | 0.00 | 91 | 1016.9 |
| 20260905070027 | 57 | 118 | 0.0 | 1.0 | 0.00 | 0.00 | 0.00 | 91 | 1016.8 |
| 20260905064527 | 57 | 117 | 0.0 | 1.0 | 0.00 | 0.00 | 0.00 | 91 | 1016.5 |
| 20260905063026 | 56 | 117 | 0.0 | 1.0 | 0.00 | 0.00 | 0.00 | 91 | 1016.6 |
| 20260905061531 | 55 | 119 | 0.0 | 0.0 | 0.00 | 0.00 | 0.00 | 90 | 1016.6 |
| 20260905060028 | 55 | 118 | 0.0 | 0.0 | 0.00 | 0.00 | 0.00 | 90 | 1016.5 |
| 20260905054524 | 55 | 119 | 0.0 | 1.0 | 0.00 | 0.00 | 0.00 | 90 | 1016.4 |
| 20260905053026 | 55 | 25 | 0.0 | 1.0 | 0.00 | 0.00 | 0.00 | 89 | 1016.4 |
| 20260905051533 | 55 | 113 | 0.0 | 0.0 | 0.00 | 0.00 | 0.00 | 88 | 1016.5 |
| 20260905050022 | 55 | 113 | 0.0 | 0.0 | 0.00 | 0.00 | 0.00 | 87 | 1016.5 |
| 20260905044523 | 56 | 113 | 0.0 | 0.0 | 0.00 | 0.00 | 0.00 | 86 | 1016.5 |
| 20260905043022 | 56 | 113 | 0.0 | 0.0 | 0.00 | 0.00 | 0.00 | 85 | 1016.6 |
| 20260905041522 | 57 | 113 | 0.0 | 1.0 | 0.00 | 0.00 | 0.00 | 84 | 1016.6 |
| 20260905040021 | 57 | 134 | 0.0 | 1.0 | 0.00 | 0.00 | 0.00 | 85 | 1016.7 |
| 20260905034520 | 57 | 120 | 0.0 | 2.0 | 0.00 | 0.00 | 0.00 | 84 | 1016.6 |
| 20260905033122 | 58 | 171 | 0.0 | 2.0 | 0.00 | 0.00 | 0.00 | 84 | 1016.4 |
| 20260905031516 | 58 | 227 | 0.0 | 1.0 | 0.00 | 0.00 | 0.00 | 84 | 1016.2 |
| 20260905030015 | 58 | 317 | 0.0 | 1.0 | 0.00 | 0.00 | 0.00 | 83 | 1015.9 |
| 20260905024514 | 58 | 317 | 0.0 | 0.0 | 0.00 | 0.00 | 0.00 | 82 | 1015.8 |
| 20260905023013 | 59 | 317 | 0.0 | 0.0 | 0.00 | 0.00 | 0.00 | 82 | 1015.7 |
| 20260905021514 | 60 | 317 | 0.0 | 4.0 | 0.00 | 0.00 | 0.00 | 81 | 1015.7 |
| 20260905020010 | 61 | 320 | 0.0 | 5.0 | 0.00 | 0.00 | 0.00 | 78 | 1015.6 |
| 20260905014509 | 62 | 48 | 1.0 | 4.0 | 0.00 | 0.00 | 0.00 | 77 | 1015.5 |
| 20260905013014 | 62 | 45 | 0.0 | 4.0 | 0.00 | 0.00 | 0.00 | 77 | 1015.5 |
| 20260905011507 | 62 | 29 | 0.0 | 6.0 | 0.00 | 0.00 | 0.00 | 78 | 1015.4 |
| 20260905010007 | 62 | 20 | 2.0 | 7.0 | 0.00 | 0.00 | 0.00 | 79 | 1015.3 |
| 20260905004504 | 62 | 290 | 2.0 | 9.0 | 0.00 | 0.00 | 0.00 | 78 | 1015.1 |
| 20260905003004 | 62 | 8 | 1.0 | 7.0 | 0.00 | 0.00 | 0.00 | 77 | 1015.0 |
| 20260905001502 | 62 | 37 | 1.0 | 7.0 | 0.00 | 0.00 | 0.00 | 79 | 1014.9 |
| 20260905000128 | 61 | 333 | 1.0 | 12.0 | 0.00 | 0.00 | 0.00 | 80 | 1014.8 |
| 20260904234559 | 61 | 85 | 2.0 | 12.0 | 0.00 | 0.00 | 0.00 | 82 | 1014.8 |
| 20260904233100 | 61 | 337 | 3.0 | 7.0 | 0.00 | 0.00 | 0.00 | 81 | 1014.7 |
| 20260904231559 | 61 | 9 | 4.0 | 10.0 | 0.00 | 0.00 | 0.00 | 81 | 1014.7 |
| 20260904230112 | 61 | 46 | 5.0 | 13.0 | 0.00 | 0.00 | 0.00 | 80 | 1014.6 |
| 20260904224557 | 62 | 9 | 5.0 | 12.0 | 0.00 | 0.00 | 0.00 | 81 | 1014.6 |
| 20260904223057 | 63 | 37 | 4.0 | 12.0 | 0.00 | 0.00 | 0.00 | 79 | 1014.6 |
| 20260904221556 | 63 | 67 | 3.0 | 11.0 | 0.00 | 0.00 | 0.00 | 77 | 1014.6 |
| 20260904220055 | 63 | 13 | 3.0 | 10.0 | 0.00 | 0.00 | 0.00 | 77 | 1014.7 |
| 20260904214557 | 63 | 356 | 3.0 | 9.0 | 0.00 | 0.00 | 0.00 | 78 | 1014.7 |
| 20260904213054 | 62 | 313 | 3.0 | 7.0 | 0.00 | 0.00 | 0.00 | 80 | 1014.7 |
| 20260904211553 | 62 | 332 | 4.0 | 7.0 | 0.00 | 0.00 | 0.00 | 78 | 1014.7 |
| 20260904210052 | 62 | 34 | 2.0 | 6.0 | 0.00 | 0.00 | 0.00 | 79 | 1014.7 |